#timestamp,LO_Frequency,Hit,StdDev 
1563890415.7,286047002.5,N
1563890435.6,286047002.3,N
1563890455.4,286046999.7,N
1563890475.3,286047000.5,N
1563890495.1,286047000.6,N
1563890496.0,286047000.6,N
1563890515.8,286046998.1,N
1563890535.7,286046999.0,N
1563890555.5,286046996.5,N
1563890575.4,286046999.5,N
1563890595.2,286047001.0,N
1563890615.0,286046998.3,N
1563890615.9,286046998.3,N
1563890635.8,286046998.8,N
1563890655.6,286046998.5,N
1563890675.4,286046998.5,N
1563890695.3,286047001.0,N
1563890715.1,286047000.7,N
1563890735.9,286046998.3,N
1563890755.7,286046998.6,N
1563890775.5,286047000.7,N
1563890795.4,286046998.2,N
1563890815.2,286047000.5,N
1563890835.0,286046998.2,N
1563890836.0,286046998.2,N
1563890855.8,286047001.2,N
1563890875.6,286047000.6,N
1563890895.5,286047000.8,N
1563890915.3,286047001.2,N
1563890935.1,286046998.5,N
1563890955.9,286047001.1,N
1563890975.7,286047000.8,N
1563890995.6,286047001.6,N
1563891015.4,286047003.9,N
1563891035.2,286047004.2,N
1563891055.1,286047004.3,N
1563891056.0,286047004.3,N
1563891075.8,286047001.5,N
1563891095.7,286047001.5,N
1563891115.6,286047001.3,N
1563891135.4,286047002.4,N
1563891155.2,286047002.5,N
1563891175.1,286047000.2,N
1563891176.0,286047000.2,N
1563891195.8,286046999.9,N
1563891215.7,286047000.5,N
1563891235.5,286046999.8,N
1563891255.3,286047000.4,N
1563891275.2,286047002.6,N
1563891295.0,286046999.9,N
1563891295.9,286046999.9,N
1563891315.8,286047000.1,N
1563891335.6,286047000.1,N
1563891355.4,286047002.7,N
1563891375.3,286047002.2,N
1563891395.1,286047002.4,N
1563891415.9,286047002.6,N
1563891435.7,286047000.1,N
1563891455.5,286047002.4,N
1563891475.4,286047001.2,N
1563891495.2,286046998.6,N
1563891515.0,286047000.7,N
1563891515.9,286047000.7,N
1563891535.8,286047002.3,N
1563891555.6,286047001.9,N
1563891575.5,286047001.5,N
1563891595.3,286047002.3,N
1563891615.1,286046999.7,N
1563891635.9,286047001.4,N
1563891655.7,286047004.3,Y
1563891675.5,286047002.8,P
1563891695.4,286047000.9,N
1563891715.2,286047001.0,N
1563891735.1,286047000.4,N
1563891736.0,286047000.4,N
1563891755.8,286046998.5,N
1563891775.6,286047000.7,N
1563891795.5,286047000.3,N
1563891815.3,286047000.9,N
1563891835.2,286046999.8,N
1563891855.9,286047000.0,N
1563891875.7,286047002.6,N
1563891895.6,286046999.7,N
1563891915.4,286047001.0,N
1563891935.2,286047000.6,N
1563891955.1,286046999.8,N
1563891956.0,286046999.8,N
1563891975.3,286047001.8,N
1563891995.2,286047004.1,Y
1563892015.0,286047003.5,P
1563892015.9,286047003.5,N
1563892035.8,286047004.1,P
1563892055.6,286047005.9,Y
1563892075.4,286047002.6,P
1563892095.3,286047002.5,P
1563892115.1,286047002.6,P
1563892135.8,286047000.0,N
1563892155.7,286047002.8,N
1563892175.5,286047002.5,N
1563892195.4,286047002.0,N
1563892215.2,286047002.3,N
1563892235.0,286047000.3,N
1563892235.9,286047000.3,N
1563892255.8,286047001.0,N
1563892275.6,286047001.0,N
1563892295.5,286047000.4,N
1563892315.3,286047000.8,N
1563892335.1,286047001.0,N
1563892355.9,286047001.0,N
1563892375.7,286047000.7,N
1563892395.6,286047000.5,N
1563892415.4,286047000.9,N
1563892435.2,286047000.2,N
1563892455.1,286047000.9,N
1563892456.0,286047000.9,N
1563892475.0,286047000.7,N
1563892475.9,286047000.7,N
1563892495.8,286046998.6,N
1563892515.6,286046996.7,Y
1563892535.4,286046997.3,P
1563892555.3,286046994.9,N
1563892575.1,286046997.1,N
1563892595.8,286046996.0,N
1563892615.7,286046993.3,Y
1563892635.5,286046997.0,P
1563892655.4,286046999.6,N
1563892675.2,286046999.2,N
1563892695.0,286046999.4,N
1563892695.9,286046999.4,N
1563892715.8,286046998.8,N
1563892735.6,286046998.8,N
1563892755.5,286046998.9,N
1563892775.3,286046999.6,N
1563892795.1,286046997.4,Y
1563892815.9,286046999.5,P
1563892835.7,286046999.4,N
1563892855.6,286046999.6,N
1563892875.4,286046996.8,Y
1563892895.2,286046998.9,P
1563892915.1,286046999.1,P
1563892916.0,286046999.1,P
1563892935.8,286046996.5,Y
1563892955.7,286046998.7,P
1563892975.5,286046998.6,P
1563892995.4,286046998.2,P
1563893015.2,286046998.9,Y
1563893035.0,286047000.5,P
1563893035.9,286047000.5,N
1563893055.8,286047001.0,N
1563893075.6,286047000.5,N
1563893095.4,286046998.3,N
1563893115.3,286046998.4,N
1563893135.1,286046998.5,N
1563893155.9,286046998.5,N
1563893175.7,286047001.2,N
1563893195.5,286046999.3,N
1563893215.4,286046998.4,N
1563893235.2,286046998.8,N
1563893255.1,286046998.6,N
1563893256.0,286046998.6,N
1563893275.8,286046998.5,N
1563893295.6,286046998.7,N
1563893315.5,286046998.2,N
1563893335.3,286047001.2,N
1563893355.2,286046998.6,N
1563893375.9,286046998.5,N
1563893395.7,286047000.8,N
1563893415.6,286047000.6,N
1563893435.4,286047000.0,N
1563893455.2,286047000.0,N
1563893475.1,286047001.2,N
1563893476.0,286047001.2,N
1563893495.8,286046998.3,N
1563893515.7,286047000.8,N
1563893535.5,286046998.1,N
1563893555.3,286046998.1,N
1563893575.2,286047000.8,N
1563893595.0,286047001.1,N
1563893595.9,286047001.1,N
1563893615.7,286047001.2,N
1563893635.6,286046998.1,N
1563893655.4,286046998.9,N
1563893675.3,286047001.2,N
1563893695.1,286047000.7,N
1563893715.8,286047000.6,N
1563893735.7,286046998.1,N
1563893755.5,286047000.0,N
1563893775.4,286047000.1,N
1563893795.2,286047000.0,N
1563893815.0,286047000.2,N
1563893815.9,286047000.2,N
1563893835.8,286046999.7,N
1563893855.6,286047000.6,N
1563893875.4,286046999.9,N
1563893895.3,286047000.5,N
1563893915.1,286046999.7,N
1563893935.9,286047000.5,N
1563893985.7,286047001.0,E
1563893995.7,286047001.1,N
